Simultaneous Nadir Overpasses (SNOs) Predictions

Prediction of SNOs between AQUA and GOES-15 Satellite Orbit:

Table of predicted SNOs for the next 14.0 days since TLE Epoch: 8/11/2016
Index Date Time (AQUA) AQUA Lat,Lon GOES-15 Lat,Lon Distance(km) Time Diff (sec)
1 08/11/2016 22:28:36 0.47,-133.41 0.28,-134.40 111.91 80
2 08/12/2016 10:49:52 0.59,-138.58 -0.29,-134.37 478.60 80
3 08/13/2016 22:16:24 1.09,-130.46 0.28,-134.29 435.75 80
4 08/14/2016 10:37:40 -0.03,-135.62 -0.29,-134.25 154.99 80
5 08/16/2016 10:25:27 -0.60,-132.65 -0.30,-134.13 168.06 80
6 08/16/2016 22:46:51 -0.50,-137.84 0.31,-134.10 425.25 80
7 08/18/2016 10:13:15 -1.23,-129.69 -0.30,-134.00 490.55 80
8 08/18/2016 22:34:39 0.13,-134.88 0.31,-133.98 102.80 80
9 08/20/2016 22:22:26 0.72,-131.92 0.31,-133.84 219.15 80
10 08/21/2016 10:43:42 0.35,-137.08 -0.32,-133.80 371.88 80
11 08/23/2016 10:31:29 -0.24,-134.11 -0.32,-133.66 50.74 80
12 08/25/2016 10:19:16 -0.83,-131.15 -0.32,-133.52 269.67 80




NCC Satellite Simultaneous Nadir Overpasses (SNOs) Prediction Service
